| time (UTC) | temp F | wind direction | speed knots | gust knots | rain 1hr in | rain 24hr in | rain mn in | humidity % | barometer mb |
| 20260506143026 | 59 | 205 | 2.6 | 14.8 | 0.00 | 0.00 | 0.00 | 85 | 1010.3 |
| 20260506141523 | 60 | 169 | 6.1 | 15.6 | 0.00 | 0.00 | 0.00 | 83 | 1010.7 |
| 20260506140022 | 61 | 194 | 4.3 | 10.4 | 0.00 | 0.00 | 0.00 | 83 | 1010.6 |
| 20260506134520 | 61 | 180 | 5.2 | 13.9 | 0.00 | 0.00 | 0.00 | 84 | 1011.0 |
| 20260506133021 | 60 | 270 | 3.5 | 13.9 | 0.00 | 0.00 | 0.00 | 85 | 1011.0 |
| 20260506131528 | 59 | 144 | 4.3 | 12.2 | 0.00 | 0.00 | 0.00 | 86 | 1010.8 |
| 20260506130018 | 59 | 183 | 5.2 | 13.0 | 0.00 | 0.00 | 0.00 | 86 | 1010.8 |
| 20260506124517 | 60 | 131 | 4.3 | 11.3 | 0.00 | 0.00 | 0.00 | 85 | 1010.8 |
| 20260506123015 | 61 | 266 | 3.5 | 9.6 | 0.00 | 0.00 | 0.00 | 84 | 1010.8 |
| 20260506121513 | 60 | 178 | 2.6 | 11.3 | 0.00 | 0.00 | 0.00 | 87 | 1011.0 |
| 20260506120017 | 59 | 207 | 3.5 | 12.2 | 0.00 | 0.00 | 0.00 | 86 | 1011.1 |
| 20260506114508 | 59 | 208 | 4.3 | 14.8 | 0.00 | 0.00 | 0.00 | 87 | 1011.1 |
| 20260506113007 | 58 | 171 | 3.5 | 11.3 | 0.00 | 0.00 | 0.00 | 88 | 1011.0 |
| 20260506111504 | 57 | 221 | 2.6 | 8.7 | 0.00 | 0.00 | 0.00 | 90 | 1011.0 |
| 20260506110004 | 56 | 217 | 1.7 | 7.0 | 0.00 | 0.00 | 0.00 | 92 | 1011.1 |
| 20260506104504 | 56 | 245 | 1.7 | 7.8 | 0.00 | 0.00 | 0.00 | 92 | 1010.9 |
| 20260506103002 | 55 | 150 | 1.7 | 10.4 | 0.00 | 0.00 | 0.00 | 92 | 1010.9 |
| 20260506101620 | 55 | 138 | 3.5 | 10.4 | 0.00 | 0.00 | 0.00 | 92 | 1010.9 |
| 20260506100119 | 55 | 247 | 3.5 | 8.7 | 0.00 | 0.00 | 0.00 | 93 | 1010.9 |
| 20260506094557 | 55 | 257 | 1.7 | 9.6 | 0.00 | 0.00 | 0.00 | 92 | 1010.8 |
| 20260506093055 | 55 | 178 | 3.5 | 7.0 | 0.00 | 0.00 | 0.00 | 92 | 1010.8 |
| 20260506091554 | 55 | 247 | 3.5 | 10.4 | 0.00 | 0.00 | 0.00 | 92 | 1010.8 |
| 20260506090051 | 55 | 248 | 1.7 | 9.6 | 0.00 | 0.00 | 0.00 | 92 | 1011.0 |
| 20260506084616 | 55 | 239 | 2.6 | 9.6 | 0.00 | 0.00 | 0.00 | 91 | 1011.1 |
| 20260506083048 | 55 | 120 | 3.5 | 9.6 | 0.00 | 0.00 | 0.00 | 91 | 1011.2 |
| 20260506081552 | 55 | 264 | 2.6 | 9.6 | 0.00 | 0.00 | 0.00 | 91 | 1011.2 |
| 20260506073045 | 55 | 236 | 3.5 | 8.7 | 0.00 | 0.00 | 0.00 | 90 | 1011.4 |
| 20260506071538 | 56 | 194 | 5.2 | 12.2 | 0.00 | 0.00 | 0.00 | 90 | 1011.5 |
| 20260506061531 | 56 | 190 | 3.5 | 11.3 | 0.00 | 0.00 | 0.00 | 89 | 1011.3 |
| 20260506044548 | 57 | 242 | 4.3 | 13.9 | 0.00 | 0.00 | 0.00 | 86 | 1011.7 |
| 20260506043016 | 57 | 219 | 3.5 | 11.3 | 0.00 | 0.00 | 0.00 | 86 | 1011.8 |
| 20260506041513 | 58 | 210 | 3.5 | 11.3 | 0.00 | 0.00 | 0.00 | 85 | 1011.8 |
| 20260506040009 | 58 | 250 | 4.3 | 15.6 | 0.00 | 0.00 | 0.00 | 84 | 1011.8 |
| 20260506034523 | 58 | 259 | 5.2 | 13.0 | 0.00 | 0.00 | 0.00 | 83 | 1011.8 |
| 20260506033009 | 59 | 211 | 6.1 | 11.3 | 0.00 | 0.00 | 0.00 | 83 | 1011.7 |
| 20260506031508 | 59 | 233 | 5.2 | 13.0 | 0.00 | 0.00 | 0.00 | 83 | 1011.7 |
| 20260506030006 | 59 | 226 | 3.5 | 10.4 | 0.00 | 0.00 | 0.00 | 83 | 1011.7 |
| 20260506024507 | 59 | 194 | 7.0 | 16.5 | 0.00 | 0.00 | 0.00 | 83 | 1011.7 |
| 20260506023005 | 59 | 253 | 4.3 | 15.6 | 0.00 | 0.00 | 0.00 | 83 | 1011.8 |
| 20260506021504 | 59 | 211 | 4.3 | 12.2 | 0.00 | 0.00 | 0.00 | 82 | 1011.8 |
| 20260506020004 | 59 | 231 | 5.2 | 15.6 | 0.00 | 0.00 | 0.00 | 81 | 1011.7 |
| 20260506014503 | 60 | 233 | 5.2 | 11.3 | 0.00 | 0.00 | 0.00 | 80 | 1011.6 |
| 20260506013003 | 60 | 161 | 8.7 | 18.2 | 0.00 | 0.00 | 0.00 | 79 | 1011.4 |
| 20260506011501 | 60 | 250 | 6.1 | 15.6 | 0.00 | 0.00 | 0.00 | 78 | 1011.2 |
| 20260506010004 | 60 | 246 | 5.2 | 14.8 | 0.00 | 0.00 | 0.00 | 78 | 1011.0 |
| 20260506004631 | 61 | 29 | 7.0 | 13.9 | 0.00 | 0.00 | 0.00 | 77 | 1010.9 |
| 20260506003113 | 62 | 242 | 5.2 | 14.8 | 0.00 | 0.00 | 0.00 | 75 | 1010.8 |
| 20260506001559 | 61 | 257 | 7.8 | 22.6 | 0.00 | 0.00 | 0.00 | 75 | 1010.6 |
| 20260506000058 | 62 | 136 | 5.2 | 17.4 | 0.00 | 0.00 | 0.00 | 75 | 1010.3 |
| 20260505234635 | 62 | 254 | 4.3 | 17.4 | 0.00 | 0.00 | 0.00 | 75 | 1010.2 |
| 20260505233105 | 62 | 124 | 6.1 | 18.2 | 0.00 | 0.00 | 0.00 | 75 | 1009.8 |
| 20260505231559 | 62 | 113 | 7.0 | 15.6 | 0.00 | 0.00 | 0.00 | 75 | 1009.6 |
| 20260505230054 | 62 | 245 | 6.1 | 14.8 | 0.00 | 0.00 | 0.00 | 74 | 1009.5 |
| 20260505224553 | 62 | 228 | 7.8 | 15.6 | 0.00 | 0.00 | 0.00 | 74 | 1009.5 |
| 20260505223052 | 62 | 134 | 8.7 | 20.9 | 0.00 | 0.00 | 0.00 | 73 | 1009.3 |
| 20260505221551 | 63 | 185 | 7.0 | 26.1 | 0.00 | 0.00 | 0.00 | 72 | 1009.5 |
| 20260505214556 | 64 | 238 | 7.8 | 31.3 | 0.00 | 0.00 | 0.00 | 71 | 1009.3 |
| 20260505213052 | 65 | 130 | 5.2 | 13.9 | 0.00 | 0.00 | 0.00 | 71 | 1008.9 |
| 20260505211552 | 65 | 120 | 7.0 | 20.0 | 0.00 | 0.00 | 0.00 | 71 | 1008.8 |
| 20260505210046 | 65 | 208 | 7.0 | 14.8 | 0.00 | 0.00 | 0.00 | 70 | 1008.9 |
| 20260505204547 | 65 | 241 | 7.0 | 15.6 | 0.00 | 0.00 | 0.00 | 70 | 1008.9 |
| 20260505203043 | 66 | 243 | 5.2 | 14.8 | 0.00 | 0.00 | 0.00 | 69 | 1009.0 |
| 20260505201542 | 66 | 239 | 2.6 | 14.8 | 0.00 | 0.00 | 0.00 | 70 | 1009.1 |
| 20260505200041 | 67 | 316 | 4.3 | 9.6 | 0.00 | 0.00 | 0.00 | 69 | 1009.3 |
| 20260505194542 | 66 | 186 | 4.3 | 15.6 | 0.00 | 0.00 | 0.00 | 70 | 1009.6 |
| 20260505193043 | 66 | 174 | 7.8 | 13.9 | 0.00 | 0.00 | 0.00 | 69 | 1009.8 |
| 20260505191549 | 66 | 178 | 6.1 | 15.6 | 0.00 | 0.00 | 0.00 | 70 | 1010.0 |
| 20260505190033 | 66 | 195 | 5.2 | 13.9 | 0.00 | 0.00 | 0.00 | 71 | 1010.3 |
| 20260505184532 | 66 | 198 | 5.2 | 13.9 | 0.00 | 0.00 | 0.00 | 71 | 1010.5 |
| 20260505183030 | 66 | 176 | 5.2 | 13.0 | 0.00 | 0.00 | 0.00 | 71 | 1010.7 |
| 20260505181529 | 66 | 198 | 6.1 | 14.8 | 0.00 | 0.00 | 0.00 | 72 | 1010.8 |
| 20260505180042 | 65 | 94 | 5.2 | 14.8 | 0.00 | 0.00 | 0.00 | 72 | 1010.9 |
| 20260505174536 | 66 | 88 | 4.3 | 13.9 | 0.00 | 0.00 | 0.00 | 73 | 1010.9 |
| 20260505173026 | 66 | 200 | 5.2 | 13.0 | 0.00 | 0.00 | 0.00 | 72 | 1011.0 |
| 20260505171531 | 66 | 178 | 3.5 | 10.4 | 0.00 | 0.00 | 0.00 | 73 | 1011.1 |
| 20260505170031 | 66 | 164 | 5.2 | 11.3 | 0.00 | 0.00 | 0.00 | 71 | 1011.2 |
| 20260505164523 | 67 | 230 | 3.5 | 9.6 | 0.00 | 0.00 | 0.00 | 70 | 1011.3 |
| 20260505163022 | 68 | 235 | 3.5 | 8.7 | 0.00 | 0.00 | 0.00 | 71 | 1011.4 |
| 20260505161521 | 68 | 167 | 2.6 | 7.8 | 0.00 | 0.00 | 0.00 | 70 | 1011.6 |
| 20260505153022 | 67 | 130 | 2.6 | 7.0 | 0.00 | 0.00 | 0.00 | 70 | 1011.7 |
| 20260505151513 | 67 | 164 | 2.6 | 7.0 | 0.00 | 0.00 | 0.00 | 71 | 1012.0 |